GW7129 Weather Reports


time (UTC)temp
C
wind
direction
speed
KPH
gust
KPH
rain 1hr
cm
rain 24hr
cm
rain mn
cm
humidity
%
barometer
mb
20260504150707 19 214 3.2 11.3 0.00 0.00 0.00 50 1016.3
20260504140701 16 287 4.8 14.5 0.00 0.00 0.00 50 1015.9
20260504130655 13 309 1.6 6.4 0.00 0.00 0.00 57 1015.9
20260504110610 3 288 0.0 0.0 0.00 0.00 0.00 84 1015.9
20260504100502 1 288 0.0 0.0 0.00 0.00 0.00 85 1015.9
20260504081345 1 288 0.0 0.0 0.00 0.00 0.00 88 1016.3
20260504080311 1 288 0.0 0.0 0.00 0.00 0.00 88 1015.9
20260504070232 2 288 0.0 0.0 0.00 0.00 0.00 88 1015.9
20260504060224 3 288 0.0 3.2 0.00 0.00 0.00 88 1015.9
20260504050147 3 231 0.0 0.0 0.00 0.00 0.00 86 1016.3
20260504045145 3 231 0.0 0.0 0.00 0.00 0.00 86 1016.3
20260504044145 3 231 0.0 0.0 0.00 0.00 0.00 85 1016.3
20260504043144 3 231 0.0 0.0 0.00 0.00 0.00 85 1016.3
20260504042143 3 231 0.0 0.0 0.00 0.00 0.00 84 1016.3
20260504041142 4 231 0.0 0.0 0.00 0.00 0.00 84 1016.3
20260504040141 4 231 0.0 0.0 0.00 0.00 0.00 83 1016.3
20260504035140 4 231 0.0 0.0 0.00 0.00 0.00 83 1015.9
20260504034138 4 231 0.0 0.0 0.00 0.00 0.00 81 1015.9
20260504033136 5 231 0.0 0.0 0.00 0.00 0.00 81 1015.9
20260504032135 5 231 0.0 0.0 0.00 0.00 0.00 80 1015.6
20260504031134 5 231 0.0 0.0 0.00 0.00 0.00 79 1016.3
20260504030133 5 231 0.0 0.0 0.00 0.00 0.00 78 1016.3
20260504025132 5 231 0.0 0.0 0.00 0.00 0.00 77 1015.9
20260504024131 5 231 0.0 0.0 0.00 0.00 0.00 75 1015.9
20260504023130 6 231 0.0 0.0 0.00 0.00 0.00 74 1015.9
20260504022129 6 231 0.0 0.0 0.00 0.00 0.00 73 1015.9
20260504021128 7 231 0.0 0.0 0.00 0.00 0.00 74 1015.6
20260504020127 7 231 0.0 1.6 0.00 0.00 0.00 73 1015.6
20260504015127 7 231 0.0 1.6 0.00 0.00 0.00 70 1015.6
20260504014125 8 231 0.0 0.0 0.00 0.00 0.00 68 1015.2
20260504013124 8 231 0.0 0.0 0.00 0.00 0.00 64 1015.2
20260504012122 9 231 0.0 0.0 0.00 0.00 0.00 61 1015.2
20260504011121 9 231 0.0 0.0 0.00 0.00 0.00 57 1014.9
20260504010121 10 231 0.0 0.0 0.00 0.00 0.00 53 1014.9
20260504005119 11 231 0.0 0.0 0.00 0.00 0.00 51 1014.9
20260504004118 12 231 0.0 0.0 0.00 0.00 0.00 47 1014.9
20260504003046 13 231 0.0 0.0 0.00 0.00 0.00 44 1014.9
20260504002045 13 231 0.0 1.6 0.00 0.00 0.00 42 1014.9
20260504001044 15 231 0.0 3.2 0.00 0.00 0.00 38 1014.9
20260504000043 16 232 0.0 4.8 0.00 0.00 0.00 35 1014.6
20260503235011 17 211 1.6 3.2 0.00 0.00 0.00 33 1014.6
20260503234010 19 204 1.6 1.6 0.00 0.00 0.00 30 1014.6
20260503232938 19 174 1.6 1.6 0.00 0.00 0.00 30 1014.2
20260503231937 19 144 0.0 6.4 0.00 0.00 0.00 30 1014.6
20260503230936 18 196 1.6 11.3 0.00 0.00 0.00 29 1014.6
20260503225935 19 229 3.2 11.3 0.00 0.00 0.00 28 1014.6
20260503224934 20 239 3.2 9.7 0.00 0.00 0.00 28 1014.6
20260503223831 20 210 3.2 9.7 0.00 0.00 0.00 29 1014.6
20260503222758 19 266 1.6 11.3 0.00 0.00 0.00 29 1014.6
20260503221757 19 244 3.2 16.1 0.00 0.00 0.00 28 1014.6
20260503220756 20 216 3.2 16.1 0.00 0.00 0.00 27 1014.9
20260503215755 20 200 4.8 9.7 0.00 0.00 0.00 27 1014.9
20260503214754 20 267 3.2 9.7 0.00 0.00 0.00 25 1014.9
20260503213753 19 267 1.6 12.9 0.00 0.00 0.00 27 1014.9
20260503212753 18 267 4.8 16.1 0.00 0.00 0.00 26 1014.9
20260503211751 18 288 8.0 16.1 0.00 0.00 0.00 24 1015.2
20260503210749 18 292 6.4 12.9 0.00 0.00 0.00 25 1015.2
20260503205748 18 324 4.8 9.7 0.00 0.00 0.00 27 1015.2
20260503204644 18 286 4.8 16.1 0.00 0.00 0.00 28 1015.2
20260503203642 18 230 3.2 16.1 0.00 0.00 0.00 28 1015.6
20260503202641 18 295 1.6 12.9 0.00 0.00 0.00 28 1015.6
20260503201639 18 282 4.8 12.9 0.00 0.00 0.00 29 1015.9
20260503200637 18 287 4.8 16.1 0.00 0.00 0.00 27 1015.9
20260503195636 18 290 4.8 16.1 0.00 0.00 0.00 29 1015.9
20260503194636 18 295 3.2 16.1 0.00 0.00 0.00 25 1015.9
20260503193635 18 227 6.4 16.1 0.00 0.00 0.00 28 1016.3
20260503192634 18 269 4.8 16.1 0.00 0.00 0.00 27 1016.3
20260503191631 17 194 3.2 14.5 0.00 0.00 0.00 28 1016.3
20260503190631 17 232 6.4 16.1 0.00 0.00 0.00 31 1016.6
20260503185559 17 298 4.8 16.1 0.00 0.00 0.00 29 1016.6
20260503184558 17 216 4.8 12.9 0.00 0.00 0.00 30 1016.9
20260503183556 17 121 3.2 12.9 0.00 0.00 0.00 31 1016.9
20260503182524 17 272 6.4 16.1 0.00 0.00 0.00 30 1017.3
20260503181523 17 320 3.2 16.1 0.00 0.00 0.00 29 1017.3
20260503180451 17 276 3.2 12.9 0.00 0.00 0.00 31 1017.6
20260503175449 17 246 6.4 12.9 0.00 0.00 0.00 31 1017.6
20260503174448 17 325 3.2 8.0 0.00 0.00 0.00 30 1017.6
20260503173447 16 252 3.2 14.5 0.00 0.00 0.00 31 1017.9
20260503172446 15 216 1.6 14.5 0.00 0.00 0.00 34 1017.9
20260503171445 15 289 6.4 14.5 0.00 0.00 0.00 33 1017.9
20260503170444 15 19 3.2 14.5 0.00 0.00 0.00 36 1018.3